Milan, Italy

10:07 PM CEST on May 24, 2017 (GMT +0200)
Malpensa

Weather History for LIMC - December, 2012

Change the Weather History Date:

Wednesday, December 5, 2012

  Actual Average Record
Temperature  
Mean Temperature 36 °F -  
Max Temperature 50 °F 44 °F 57 °F (2003)
Min Temperature 23 °F 26 °F 21 °F (2013)
Degree Days  
Heating Degree Days 28    
Moisture  
Dew Point 25 °F    
Average Humidity 72    
Maximum Humidity 93    
Minimum Humidity 35    
Precipitation  
Precipitation 0.00 in 0.07 in - ()
Sea Level Pressure  
Sea Level Pressure 29.61 in    
Wind  
Wind Speed 2 mph ()    
Max Wind Speed 5 mph    
Max Gust Speed -    
Visibility 6.2 miles    
Events      
Averages and records for this station are not official NWS values.
T = Trace of Precipitation, MM = Missing Value Source: Averaged Metar Reports

Daily Weather History Graph

Daily Weather History Graph

Search for Another Location

Airport or City:

Trip Planner

Search our weather history database for the weather conditions in past years. The results will help you decide how hot, cold, wet, or windy it might be!

Date:

Astronomy

Dec. 05, 2012 Rise Set
Actual Time 7:49 AM CET 4:41 PM CET
Civil Twilight 7:16 AM CET 5:15 PM CET
Nautical Twilight 6:38 AM CET 5:52 PM CET
Astronomical Twilight 6:02 AM CET 6:28 PM CET
Moon 11:28 PM CET (12/5) 11:52 AM CET (12/5)
Length of Visible Light 9h 59m
Length of Day
8h 51m
Waning Gibbous, 62% of the Moon is Illuminated
Dec 5
Waning Gibbous
Dec 6
Last Quarter
Dec 13
New
Dec 20
First Quarter
Dec 28
Full

Hourly Weather History & Observations

Time (CET) Temp. Windchill Dew Point Humidity Pressure Visibility Wind Dir Wind Speed Gust Speed Precip Events Conditions
12:20 AM 32.0 °F 27.5 °F 23.0 °F 69% 29.59 in - North 4.6 mph - N/A   Clear
12:50 AM 26.6 °F - 21.2 °F 80% 29.59 in - Calm Calm - N/A   Clear
1:20 AM 24.8 °F - 21.2 °F 86% 29.59 in - Calm Calm - N/A   Clear
1:50 AM 24.8 °F - 21.2 °F 86% 29.59 in - North 2.3 mph - N/A   Clear
2:20 AM 24.8 °F - 21.2 °F 86% 29.59 in - Variable 1.2 mph - N/A   Clear
2:50 AM 28.4 °F - 24.8 °F 86% 29.59 in - Variable 2.3 mph - N/A   Clear
3:20 AM 26.6 °F - 23.0 °F 86% 29.59 in - Calm Calm - N/A   Clear
3:50 AM 24.8 °F - 21.2 °F 86% 29.56 in - Calm Calm - N/A   Clear
4:20 AM 23.0 °F - 21.2 °F 93% 29.56 in - Variable 1.2 mph - N/A   Clear
4:50 AM 23.0 °F - 21.2 °F 93% 29.56 in - NNE 2.3 mph - N/A   Clear
5:20 AM 24.8 °F - 21.2 °F 86% 29.56 in - Variable 1.2 mph - N/A   Clear
6:20 AM 26.6 °F - 23.0 °F 86% 29.56 in - Variable 2.3 mph - N/A   Clear
6:50 AM 24.8 °F - 23.0 °F 93% 29.56 in - North 2.3 mph - N/A   Clear
7:20 AM 30.2 °F 26.7 °F 23.0 °F 75% 29.56 in 6.2 mi North 3.5 mph - N/A   Partly Cloudy
7:50 AM 24.8 °F - 23.0 °F 93% 29.56 in 6.2 mi Variable 1.2 mph - N/A   Partly Cloudy
8:20 AM 33.8 °F - 24.8 °F 70% 29.56 in 6.2 mi Variable 2.3 mph - N/A   Scattered Clouds
8:50 AM 37.4 °F - 28.4 °F 70% 29.56 in 6.2 mi Variable 2.3 mph - N/A   Scattered Clouds
9:20 AM 33.8 °F - 28.4 °F 81% 29.59 in 6.2 mi Variable 2.3 mph - N/A   Scattered Clouds
9:50 AM 35.6 °F - 26.6 °F 70% 29.59 in 6.2 mi Variable 2.3 mph - N/A   Mostly Cloudy
10:20 AM 39.2 °F - 24.8 °F 56% 29.59 in 6.2 mi Variable 2.3 mph - N/A   Mostly Cloudy
10:50 AM 41.0 °F - 28.4 °F 61% 29.62 in 6.2 mi Variable 1.2 mph - N/A   Scattered Clouds
11:20 AM 42.8 °F - 26.6 °F 53% 29.62 in 6.2 mi Variable 1.2 mph - N/A   Scattered Clouds
11:50 AM 44.6 °F - 24.8 °F 46% 29.59 in - Variable 1.2 mph - N/A   Clear
12:20 PM 46.4 °F - 24.8 °F 43% 29.59 in - Variable 1.2 mph - N/A   Clear
12:50 PM 48.2 °F - 24.8 °F 40% 29.59 in - Variable 1.2 mph - N/A   Clear
1:20 PM 50.0 °F - 23.0 °F 35% 29.59 in - Calm Calm - N/A   Clear
1:50 PM 50.0 °F - 23.0 °F 35% 29.59 in - Variable 2.3 mph - N/A   Clear
3:20 PM 48.2 °F - 26.6 °F 43% 29.59 in - Variable 2.3 mph - N/A   Clear
3:50 PM 42.8 °F - 28.4 °F 57% 29.59 in - WSW 2.3 mph - N/A   Clear
4:20 PM 44.6 °F - 28.4 °F 53% 29.59 in - SW 1.2 mph - N/A   Clear
4:50 PM 44.6 °F - 28.4 °F 53% 29.62 in - Calm Calm - N/A   Clear
5:20 PM 39.2 °F - 26.6 °F 61% 29.62 in - Calm Calm - N/A   Clear
5:50 PM 35.6 °F - 28.4 °F 75% 29.62 in - Variable 1.2 mph - N/A   Clear
6:20 PM 30.2 °F 26.7 °F 24.8 °F 80% 29.62 in - North 3.5 mph - N/A   Clear
6:50 PM 30.2 °F - 23.0 °F 75% 29.65 in - North 2.3 mph - N/A   Clear
7:20 PM 28.4 °F - 24.8 °F 86% 29.65 in - Calm Calm - N/A   Clear
7:50 PM 32.0 °F - 26.6 °F 80% 29.65 in - ENE 2.3 mph - N/A   Clear
8:20 PM 32.0 °F - 26.6 °F 80% 29.65 in - Variable 1.2 mph - N/A   Clear
8:50 PM 32.0 °F - 24.8 °F 75% 29.68 in - Calm Calm - N/A   Clear
9:20 PM 30.2 °F - 24.8 °F 80% 29.68 in - Calm Calm - N/A   Clear
9:50 PM 30.2 °F - 26.6 °F 86% 29.68 in - Variable 1.2 mph - N/A   Clear
10:20 PM 30.2 °F - 26.6 °F 86% 29.68 in - Variable 2.3 mph - N/A   Clear
10:50 PM 33.8 °F - 28.4 °F 81% 29.68 in - Variable 1.2 mph - N/A   Clear
11:50 PM 28.4 °F - 24.8 °F 86% 29.71 in - Calm Calm - N/A   Clear